STARLINK-4591, 53607

Orbit data source: Space-Track

STARLINK-4591, 53607 is a payload satellite owned by SpaceX/Seattle (US) in LEO that was launched on Sun, 28 Aug 2022 UTC via an FALCON 9 launch vehicle from the Air Force Eastern Test Range (AFETR). Payload-class satellites include a variety of spacecraft equipped with specific instruments for various scientific and technological missions. These include communications satellites like Starlink; space stations such as the ISS; scientific satellites like the Hubble; Earth observation satellites from companies like Planet Labs, Umbra, and HawkEye 360; GPS; miniature CubeSats for education and research; and military/defense satellites.

Loading next visibility...
Identifier
53607, 2022-104V
Orbit
LEO
Country
Flag of USUS
Related business
Manufacturer
SpaceX/Seattle
Mission
Operational Commercial Communications
Bus & Motor
STARLINK, Unknown motor
Mass
300 kg wet, ~290 kg dry
Launch date (UTC)
2022-08-28 (3 years ago)
Launch vehicle
FALCON 9
Launch site
Air Force Eastern Test Range (AFETR)
Object type
Payload
Rocket body
Debris
Shape & HBR
Box + 1 Pan, 10.1 m
Radar Cross Section
13.562 m², Large (>1 m²)

Expand to show TLE details & history
Last TLE update: 15 hours ago

TLE from 15 hours ago
0 STARLINK-4591
1 53607U 22104V   25300.87392015 -.00000245  00000-0  27101-5 0  9993
2 53607  53.2157 115.4067 0001366  91.3491 268.7657 15.08830329175635
Epoch: 2025-10-27T20:58Z
TLE epoch observation values (Epoch: 2025-10-27T20:58:26.700Z)
Latitude
-0.0001°
Longitude
124.32587°
Altitude
540.691 km
Speed
7.593 km/s
True Right ascension
07h 41m 37s
True Declination
0° 00' 00"
Sunlit
Object was in daylight at epoch
Visualization orbit readout
Latitude
Unknown
Longitude
Unknown
Altitude
Unknown
Speed
Unknown
Apparent Right ascension
Unknown
Apparent Declination
Unknown
Sunlit
N/A
Visualization observer readout
Local Sidereal Time
07:09:04
Azimuth
Unknown
Elevation
Unknown
Doppler factor
Unknown
Orbital elements
Apogee altitude
540.963 km
Perigee altitude
539.073 km
Semi-major axis
6,918.155 km
Eccentricity
0.00014
Inclination
53.2157°
RAAN
115.4067°
Arg. of periapsis
91.3491°
True anomaly
268.75005°
Mean anomaly
268.7657°
Eccentric anomaly
268.75788°
Mean motion
3.77188 °/min
Orbital period
95.44 mins
BSTAR
0.0000027101
Loading maneuver chart data...
Computing Atmospheric mass density...
Loading historical data...
Loading historical data...
Loading historical data...
Loading historical data...
Loading historical data...
Loading historical data...
Loading historical data...

Documentation

Showing up to 5 results
|